THOR ABLESTAR DEB, 119

Orbit data source: Space-Track

THOR ABLESTAR DEB, 119 is space debris in LEO originally from a launch on Thu, 29 Jun 1961 UTC launched from the Air Force Eastern Test Range (AFETR). Debris objects in space refer to the collection of defunct objects orbiting the Earth. Examples of debris include non-operational satellites, rocket bodies, and fragments generated from explosions, collisions, or faulty payload assembly.

Loading next visibility...
Identifier
119, 1961-015D
Orbit
LEO
Country
Flag of USUS
Related business
Manufacturer
Unknown
Mission
Spacecraft
Bus & Motor
Unknown
Mass
Unknown
Launch date (UTC)
1961-06-29 (65 years ago)
Launch vehicle
Unknown
Launch site
Air Force Eastern Test Range (AFETR)
Object type
Payload
Rocket body
Debris
Shape & HBR
Unknown shape, 0.2 m
Radar Cross Section
Medium (>0.1 m² and <1 m²)

Expand to show TLE details & history
Last TLE update: 12 hours ago

TLE from 12 hours ago
0 THOR ABLESTAR DEB
1 00119U 61015D   26095.07591593  .00001092  00000-0  45304-3 0  9996
2 00119  66.7266 218.7756 0106115 310.4056  48.7817 14.27241988347886
Epoch: 2026-04-05T01:49Z
TLE epoch observation values (Epoch: 2026-04-05T01:49:19.136Z)
Latitude
Longitude
-1.94067°
Altitude
753.33 km
Speed
7.504 km/s
True Right ascension
14h 35m 06s
True Declination
0° 00' 00"
Sunlit
Object was in full shadow at epoch
Visualization orbit readout
Latitude
Unknown
Longitude
Unknown
Altitude
Unknown
Speed
Unknown
Apparent Right ascension
Unknown
Apparent Declination
Unknown
Sunlit
N/A
Visualization observer readout
Local Sidereal Time
19:25:32
Azimuth
Unknown
Elevation
Unknown
Doppler factor
Unknown
Orbital elements
Apogee altitude
875.502 km
Perigee altitude
723.174 km
Semi-major axis
7,177.475 km
Eccentricity
0.01061
Inclination
66.7266°
RAAN
218.7756°
Arg. of periapsis
310.4056°
True anomaly
49.70439°
Mean anomaly
48.7817°
Eccentric anomaly
49.24224°
Mean motion
3.56932 °/min
Orbital period
100.86 mins
BSTAR
0.00045304
Loading maneuver chart data...
Computing Atmospheric mass density...
Loading historical data...
Loading historical data...
Loading historical data...
Loading historical data...
Loading historical data...
Loading historical data...
Loading historical data...

Documentation

Showing up to 5 results
|